Tracking 31027 objects as of 19-Jul-2025
HD Live streaming from Space Station
objects crossing your sky now

STARLINK-30387

Track STARLINK-30387 now!
10-day predictions
STARLINK-30387 is classified as:


NORAD ID: 57788
Int'l Code: 2023-134T
Perigee: 565.8 km
Apogee: 566.7 km
Inclination: 43.0 °
Period: 95.8 minutes
Semi major axis: 6937 km
RCS: Unknown
Launch date: September 4, 2023
Source: United States (US)
Launch site: AIR FORCE EASTERN TEST RANGE (AFETR)
Your satellite tracking list
FENGYUN 1C DEB
Track 1 satellite(s)




NASA's NSSDC Master Catalog

Two Line Element Set (TLE):
1 57788U 23134T   25199.46368891 -.00000147  00000-0  41755-5 0  9999
2 57788  43.0018  16.8965 0000623 240.1278 119.9503 15.02527564104395
Source of the keplerian elements: AFSPC